TimeCDT,TemperatureF,Dew PointF,Humidity,Sea Level PressureIn,VisibilityMPH,Wind Direction,Wind SpeedMPH,Gust SpeedMPH,PrecipitationIn,Events,Conditions,WindDirDegrees,DateUTC
12:14 AM,58.1,52.0,80,30.18,10.0,Calm,Calm,-,N/A,,Clear,0,2013-08-17 05:14:00
12:34 AM,58.1,51.8,80,30.18,10.0,Calm,Calm,-,N/A,,Clear,0,2013-08-17 05:34:00
12:54 AM,58.1,51.8,80,30.18,10.0,Calm,Calm,-,N/A,,Clear,0,2013-08-17 05:54:00
1:14 AM,57.4,52.0,82,30.18,10.0,Calm,Calm,-,N/A,,Clear,0,2013-08-17 06:14:00
1:34 AM,57.2,52.3,84,30.18,10.0,Calm,Calm,-,N/A,,Clear,0,2013-08-17 06:34:00
1:54 AM,56.7,51.4,83,30.18,10.0,Calm,Calm,-,N/A,,Clear,0,2013-08-17 06:54:00
2:14 AM,56.1,50.4,81,30.18,10.0,Calm,Calm,-,N/A,,Clear,0,2013-08-17 07:14:00
2:34 AM,55.8,50.0,81,30.18,10.0,Calm,Calm,-,N/A,,Clear,0,2013-08-17 07:34:00
2:54 AM,55.4,51.1,85,30.18,10.0,Calm,Calm,-,N/A,,Clear,0,2013-08-17 07:54:00
3:14 AM,55.8,50.4,82,30.18,10.0,SE,3.5,-,N/A,,Clear,140,2013-08-17 08:14:00
3:34 AM,55.6,49.8,81,30.18,10.0,Calm,Calm,-,N/A,,Clear,0,2013-08-17 08:34:00
3:54 AM,55.8,50.2,82,30.18,10.0,SE,3.5,-,N/A,,Clear,130,2013-08-17 08:54:00
4:14 AM,54.9,50.0,84,30.19,10.0,Calm,Calm,-,N/A,,Clear,0,2013-08-17 09:14:00
4:34 AM,57.2,51.1,80,30.18,10.0,Calm,Calm,-,N/A,,Clear,0,2013-08-17 09:34:00
4:54 AM,55.0,49.1,80,30.18,10.0,Calm,Calm,-,N/A,,Clear,0,2013-08-17 09:54:00
5:14 AM,56.3,50.5,81,30.18,10.0,Calm,Calm,-,N/A,,Clear,0,2013-08-17 10:14:00
5:34 AM,54.3,49.1,83,30.19,10.0,Calm,Calm,-,N/A,,Clear,0,2013-08-17 10:34:00
5:54 AM,56.3,50.5,81,30.19,10.0,SSE,3.5,-,N/A,,Clear,150,2013-08-17 10:54:00
6:14 AM,55.4,50.2,83,30.19,10.0,Calm,Calm,-,N/A,,Clear,0,2013-08-17 11:14:00
6:34 AM,55.4,50.2,83,30.19,10.0,Calm,Calm,-,N/A,,Clear,0,2013-08-17 11:34:00
6:54 AM,55.6,50.2,82,30.20,10.0,Calm,Calm,-,N/A,,Clear,0,2013-08-17 11:54:00
7:14 AM,57.0,51.4,82,30.20,10.0,Calm,Calm,-,N/A,,Clear,0,2013-08-17 12:14:00
7:34 AM,58.6,52.5,80,30.20,10.0,SSE,3.5,-,N/A,,Clear,160,2013-08-17 12:34:00
7:54 AM,59.9,53.2,79,30.20,10.0,Calm,Calm,-,N/A,,Clear,0,2013-08-17 12:54:00
8:14 AM,61.7,54.0,76,30.20,10.0,SSE,4.6,-,N/A,,Clear,160,2013-08-17 13:14:00
8:34 AM,63.0,54.5,74,30.20,10.0,SSE,3.5,-,N/A,,Clear,160,2013-08-17 13:34:00
8:54 AM,64.8,54.9,70,30.20,10.0,South,5.8,-,N/A,,Clear,180,2013-08-17 13:54:00
9:14 AM,66.2,54.5,66,30.20,10.0,SSE,5.8,-,N/A,,Clear,160,2013-08-17 14:14:00
9:34 AM,68.0,54.9,63,30.20,10.0,South,6.9,-,N/A,,Clear,180,2013-08-17 14:34:00
9:54 AM,70.2,55.0,59,30.20,10.0,South,5.8,-,N/A,,Clear,180,2013-08-17 14:54:00
10:14 AM,71.8,55.8,57,30.19,10.0,South,8.1,-,N/A,,Clear,180,2013-08-17 15:14:00
10:34 AM,72.9,54.5,52,30.19,10.0,South,10.4,-,N/A,,Clear,180,2013-08-17 15:34:00
10:54 AM,74.5,54.5,50,30.19,10.0,South,8.1,-,N/A,,Clear,180,2013-08-17 15:54:00
11:14 AM,74.8,54.1,48,30.19,10.0,South,11.5,-,N/A,,Clear,180,2013-08-17 16:14:00
11:34 AM,76.5,53.6,45,30.19,10.0,South,10.4,-,N/A,,Clear,180,2013-08-17 16:34:00
11:54 AM,76.1,51.8,43,30.18,10.0,South,9.2,16.1,N/A,,Clear,170,2013-08-17 16:54:00
12:14 PM,77.9,52.2,41,30.18,10.0,South,12.7,19.6,N/A,,Clear,190,2013-08-17 17:14:00
12:34 PM,77.9,52.9,42,30.18,10.0,South,8.1,16.1,N/A,,Clear,170,2013-08-17 17:34:00
12:54 PM,77.7,53.2,43,30.17,10.0,South,13.8,17.3,N/A,,Clear,190,2013-08-17 17:54:00
1:14 PM,77.9,52.2,41,30.17,10.0,SSW,10.4,-,N/A,,Clear,200,2013-08-17 18:14:00
1:34 PM,78.6,53.1,41,30.17,10.0,South,8.1,17.3,N/A,,Scattered Clouds,170,2013-08-17 18:34:00
1:54 PM,79.5,52.7,39,30.16,10.0,South,10.4,16.1,N/A,,Scattered Clouds,170,2013-08-17 18:54:00
2:14 PM,79.7,53.2,40,30.15,10.0,South,11.5,17.3,N/A,,Clear,170,2013-08-17 19:14:00
2:34 PM,79.9,52.9,39,30.15,10.0,South,11.5,-,N/A,,Clear,180,2013-08-17 19:34:00
2:54 PM,79.3,53.6,41,30.14,10.0,South,11.5,16.1,N/A,,Scattered Clouds,180,2013-08-17 19:54:00
3:14 PM,80.1,53.4,40,30.14,10.0,South,9.2,-,N/A,,Scattered Clouds,190,2013-08-17 20:14:00
3:34 PM,80.4,53.1,39,30.14,10.0,South,6.9,16.1,N/A,,Scattered Clouds,170,2013-08-17 20:34:00
3:54 PM,80.8,52.7,38,30.13,10.0,South,10.4,18.4,N/A,,Scattered Clouds,170,2013-08-17 20:54:00
4:14 PM,80.2,53.1,39,30.13,10.0,SSE,6.9,16.1,N/A,,Scattered Clouds,160,2013-08-17 21:14:00
4:34 PM,80.8,53.8,39,30.13,10.0,South,8.1,-,N/A,,Scattered Clouds,170,2013-08-17 21:34:00
4:54 PM,80.2,52.7,38,30.13,10.0,South,5.8,-,N/A,,Scattered Clouds,170,2013-08-17 21:54:00
5:14 PM,80.4,53.1,39,30.13,10.0,South,9.2,-,N/A,,Scattered Clouds,180,2013-08-17 22:14:00
5:34 PM,80.1,52.9,39,30.13,10.0,South,10.4,-,N/A,,Scattered Clouds,180,2013-08-17 22:34:00
5:54 PM,79.7,52.5,39,30.12,10.0,SSE,6.9,-,N/A,,Scattered Clouds,160,2013-08-17 22:54:00
6:14 PM,79.2,53.1,40,30.12,10.0,South,6.9,-,N/A,,Clear,170,2013-08-17 23:14:00
6:34 PM,78.6,52.5,40,30.11,10.0,South,6.9,-,N/A,,Clear,170,2013-08-17 23:34:00
6:54 PM,77.9,53.4,43,30.11,10.0,SSE,5.8,-,N/A,,Clear,160,2013-08-17 23:54:00
7:14 PM,77.0,53.4,44,30.11,10.0,South,4.6,-,N/A,,Clear,170,2013-08-18 00:14:00
7:34 PM,75.7,53.4,46,30.11,10.0,SSE,4.6,-,N/A,,Clear,160,2013-08-18 00:34:00
7:54 PM,73.9,53.8,49,30.11,10.0,South,3.5,-,N/A,,Clear,170,2013-08-18 00:54:00
8:14 PM,71.8,54.5,54,30.11,10.0,Calm,Calm,-,N/A,,Clear,0,2013-08-18 01:14:00
8:34 PM,70.2,54.9,58,30.11,10.0,Calm,Calm,-,N/A,,Clear,0,2013-08-18 01:34:00
8:54 PM,68.9,54.7,60,30.11,10.0,Calm,Calm,-,N/A,,Clear,0,2013-08-18 01:54:00
9:14 PM,67.6,54.9,64,30.12,10.0,Calm,Calm,-,N/A,,Clear,0,2013-08-18 02:14:00
9:34 PM,66.9,54.7,65,30.12,10.0,SSE,3.5,-,N/A,,Clear,150,2013-08-18 02:34:00
9:54 PM,65.5,54.5,68,30.12,10.0,Calm,Calm,-,N/A,,Clear,0,2013-08-18 02:54:00
10:14 PM,66.2,53.8,64,30.12,10.0,Calm,Calm,-,N/A,,Clear,0,2013-08-18 03:14:00
10:34 PM,65.1,53.6,66,30.12,10.0,SSE,3.5,-,N/A,,Clear,160,2013-08-18 03:34:00
10:54 PM,66.2,53.1,63,30.11,10.0,SSE,3.5,-,N/A,,Clear,160,2013-08-18 03:54:00
11:14 PM,66.2,53.1,63,30.11,10.0,SSE,3.5,-,N/A,,Clear,160,2013-08-18 04:14:00
11:34 PM,66.2,52.9,62,30.11,10.0,South,3.5,-,N/A,,Clear,170,2013-08-18 04:34:00
11:54 PM,65.7,52.9,63,30.12,10.0,South,4.6,-,N/A,,Clear,170,2013-08-18 04:54:00